Regional Weather Roundup
Issued by NWS

Home | Current Version | Previous Version | Graphics & Text | Print | Product List | Glossary On
Versions: 1 2 3 4 5 6 7 8 9 10 11 12 13 14 15 16 17 18 19 20 21 22 23 24 25 26 27 28 29 30 31 32 33 34 35 36 37 38 39 40 41 42 43 44 45 46 47 48 49 50
548
ASUS43 KTOP 250959
RWRKS

WEATHER ROUNDUP FOR KANSAS
NATIONAL WEATHER SERVICE GOODLAND KS
500 AM CDT MON JUL 25 2016

NOTE:  "FAIR" INDICATES FEW OR NO CLOUDS BELOW 12,000 FEET WITH NO
SIGNIFICANT WEATHER AND/OR OBSTRUCTIONS TO VISIBILITY.

KSZ001>006-013>018-027>032-041>047-251100-
NORTHWEST KANSAS

CITY           SKY/WX    TMP DP  RH WIND       PRES   REMARKS
GOODLAND       PTCLDY    61  59  93 E5        30.17R
HAYS           CLOUDY    70  61  73 SW6       30.07F
HILL CITY      CLOUDY    69  64  84 E8        30.11F
RUSSELL        RAIN      68  66  93 NW10      30.08F
$$

KSZ061>065-074>080-084>089-251100-
SOUTHWEST KANSAS

CITY           SKY/WX    TMP DP  RH WIND       PRES   REMARKS
DODGE CITY     LGT RAIN  67  66  97 NE12      30.09S
ELKHART          N/A     66  63  90 N5          N/A
GARDEN CITY    CLOUDY    66  65  96 NE9       30.10F
GREAT BEND     CLOUDY    68  61  77 NW10      30.07F
LIBERAL        MOCLDY    70  63  78 N7        30.10F
$$

KSZ066>073-081>083-090>101-251100-
SOUTHEAST KANSAS

CITY           SKY/WX    TMP DP  RH WIND       PRES   REMARKS
CHANUTE        CLOUDY    77  69  76 E5        29.98F
COFFEYVILLE    CLOUDY    79  74  84 SE3       29.97R
HUTCHINSON     CLOUDY    75  68  78 NW20G28   30.02S
NEWTON         CLOUDY    77  73  87 VRB5      30.00S THUNDER
PARSONS        CLOUDY    81  74  79 CALM      30.00R
WICHITA INTL   CLOUDY    82  71  69 W20G32    30.01R
WICHITA JABRA  CLOUDY    78  76  93 S5        30.00R
WINFIELD       CLOUDY    81  73  76 SW10G22   29.99R
$$

KSZ007>012-019>026-033>040-048>060-102>105-251100-
NORTHEAST KANSAS

CITY           SKY/WX    TMP DP  RH WIND       PRES   REMARKS
CONCORDIA      CLOUDY    71  64  78 NE10      30.07R
EMPORIA        CLOUDY    74  64  71 E25G35    30.00S
LAWRENCE       CLOUDY    76  67  73 NE10      30.02S
MANHATTAN      TSTM      71  69  93 E8        30.04R
OLATHE IND       N/A     74  72  93 NE8       30.04R THUNDER
OLATHE EXE     TSTM      74  71  91 CALM      30.05R
SALINA         CLOUDY    73  68  84 VRB3      30.02R
TOPEKA BILLARD CLOUDY    75  67  76 CALM      30.04R
TOPEKA FORBES  CLOUDY    75  69  81 NE5       30.05R
$$




USA.gov is the U.S. government's official web portal to all federal, state and local government web resources and services.